Regional Weather Roundup
Issued by NWS

Home | Current Version | Previous Version | Graphics & Text | Print | Product List | Glossary On
Versions: 1 2 3 4 5 6 7 8 9 10 11 12 13 14 15 16 17 18 19 20 21 22 23 24 25 26 27 28 29 30 31 32 33 34 35 36 37 38 39 40 41 42 43 44 45 46 47 48 49 50
000
ASUS44 KMEG 170910
RWRTN
TENNESSEE HOURLY STATE WEATHER ROUNDUP
NATIONAL WEATHER SERVICE MEMPHIS TN
300 AM CST FRI NOV 17 2017

TNZ002-004-019-021-049-052-054-088>092-171000-
WEST TENNESSEE

CITY           SKY/WX    TMP DP  RH WIND       PRES   REMARKS
MEMPHIS INTL   MOCLDY    48  42  80 E5        30.14S
NWS MEMPHIS      N/A     41 N/A N/A MISG        N/A
JACKSON        CLEAR     39  37  92 E5        30.16S
DYERSBURG      FOG       39  37  92 E3        30.17S VSB 1
SOMERVILLE     PTCLDY    41  39  93 CALM      30.12S
COVINGTON      PTCLDY    36  36 100 CALM      30.15F
UNION CITY     CLEAR     34  34 100 CALM      30.17S FOG
BOLIVAR        CLEAR     36  34  93 CALM      30.14F
PARIS          CLEAR     34  34 100 E5        30.15F FOG     WCI  30
HUNTINGDON     PTCLDY    36  36 100 CALM      30.15F FOG
LEXINGTON      CLEAR     36  34  93 CALM      30.16F FOG
SELMER         CLEAR     37  36  93 CALM      30.15S
SAVANNAH       CLEAR     34  34 100 CALM      30.15S
$$

TNZ008-025-027-028-033-062-065-066-171000-
NORTH MIDDLE TENNESSEE

CITY           SKY/WX    TMP DP  RH WIND       PRES   REMARKS
NASHVILLE      PTCLDY    36  33  89 NE3       30.18F
PORTLAND       MOCLDY    30  30 100 CALM      30.18R FOG
CLARKSVILLE    CLOUDY    30  29  96 E3        30.19S FOG
SMYRNA         CLEAR     31  29  92 CALM      30.19F
COOKEVILLE     CLEAR     28  28 100 CALM      30.16F FOG
GALLATIN       CLEAR     34  32  93 CALM      30.21S FOG
CROSSVILLE     FOG       33  31  92 E3        30.16F VSB 1
$$

TNZ061-075-076-078-094-096-097-171000-
SOUTH MIDDLE TENNESSEE

CITY           SKY/WX    TMP DP  RH WIND       PRES   REMARKS
FAYETTEVILLE   CLEAR     37  36  93 NE8       30.14S WCI  31
TULLAHOMA      CLEAR     32  30  93 CALM      30.15F
WINCHESTER     PTCLDY    30  30 100 CALM      30.16S
MCMINNVILLE    CLEAR     30  28  93 N3        30.16F FOG
COLUMBIA       FOG       32  32 100 CALM      30.15F VSB 1/2
SHELBYVILLE    CLEAR     30  30 100 CALM      30.16F FOG
$$

TNZ017-018-042-046-047-171000-
NORTHEAST TENNESSEE

CITY           SKY/WX    TMP DP  RH WIND       PRES   REMARKS
TRI CITIES     CLEAR     31  31 100 CALM      30.22R
ELIZABETHTON   CLEAR     30  30 100 CALM      30.22S
$$

TNZ012-013-036-069-073-074-171000-
CENTRAL EAST TENNESSEE

CITY           SKY/WX    TMP DP  RH WIND       PRES   REMARKS
KNOXVILLE      CLEAR     39  38  96 NE8       30.17F WCI  33
OAK RIDGE      CLEAR     39  37  92 CALM      30.21S
DOWNTOWN KNOXV FOG       36  36 100 CALM      30.20S VSB 1/2
GATLINBURG     CLEAR     32  32 100 NE3       30.19S
MORRISTOWN     CLEAR     37  34  87 E5        30.19S WCI  34
JACKSBORO      CLEAR     32  32 100 CALM      30.24F FOG
$$

TNZ083-085-099-171000-
SOUTHEAST TENNESSEE

CITY           SKY/WX    TMP DP  RH WIND       PRES   REMARKS
CHATTANOOGA    CLEAR     37  35  92 CALM      30.18S
$$

SKY/WX REPORTED AS FAIR MEANS FEW OR NO CLOUDS BELOW
12 THOUSAND FEET.





USA.gov is the U.S. government's official web portal to all federal, state and local government web resources and services.